Location: Hains Lake
(37.8540°N, 99.8578°W)
Time: 22:02:47
(UTC+00:00)

deb Explorer IX - Pass Details

Date: 28 April 2021
Orbit: 541 x 1098 km, 38.8° (Epoch: 13 May)

Event Time Altitude Azimuth Distance (km) Brightness Sun altitude
Rises 09:27:43 0° 228° (SW) 2,881 - -24.3°
Reaches altitude 10° 09:30:17 10° 219° (SW) 1,910 - -23.9°
Maximum altitude 09:34:11 34° 154° (SSE) 934 - -23.3°
Exits shadow 09:34:47 32° 136° (SE) 961 ? -23.2°
Drops below altitude 10° 09:37:53 10° 89° (E) 1,800 ? -22.8°
Sets 09:40:14 0° 80° (E) 2,688 ? -22.4°
